Home > Weather > San Bernardino > Past weeks

Flag for U.S.A. Weather for the Past 2 Weeks in San Bernardino, California, U.S.A.

Now
50 °F

Clear.


Feels Like: 48 °F
Forecast: 46 / 72 °F
Wind: 6 mph from East

Location: Riverside Municipal Airport

Current Time: Feb 6, 2016 at 1:51:45 AM

Latest Report: Feb 6, 2016 at 12:53 AM


Visibility: 10 mi

Pressure: 30.28 "Hg

Humidity: 38%

Dew point: 25 °F

Location of San BernardinoLocation

Historic Weather in San Bernardino — Graph

°F

San Bernardino Temperature Yesterday

Maximum temperature yesterday: 73 °F (at 1:53 PM)
Minimum temperature yesterday: 47 °F (at 4:53 AM)
Average temperature yesterday: 61 °F

High & Low Weather Summary for the Past Weeks

 TemperatureHumidityPressure
High76 °F (Jan 28, 2:53 PM)93% (Jan 24, 1:53 AM)30.34 "Hg (Jan 24, 1:53 AM)
Low37 °F (Feb 2, 3:53 AM)9% (Jan 26, 12:53 PM)29.58 "Hg (Jan 31, 1:53 PM)
Average56 °F46%30.09 "Hg
* Reported Jan 21 11:53 PM — Feb 5 11:53 PM, San Bernardino, Weather by CustomWeather, © 2016

Note: Actual official high and low records may vary slightly from our data, if they occured in-between our weather recording intervals... More about our weather records

Advertising

San Bernardino Weather History for the Previous 24 Hours

 ConditionsComfort  
Time TempWeatherWind HumidityBarometerVisibility
11:53 PM
Fri, Feb 5
53 °FClear.6 mph32%30.28 "Hg10 mi
10:53 PM53 °FClear.5 mph31%30.28 "Hg10 mi
9:53 PM58 °FClear.5 mph24%30.28 "Hg10 mi
8:53 PM63 °FClear.5 mph17%30.28 "Hg10 mi
7:53 PM63 °FClear.5 mph17%30.28 "Hg10 mi
6:53 PM66 °FClear.7 mph15%30.28 "Hg10 mi
5:53 PM67 °FClear.10 mph15%30.26 "Hg10 mi
4:53 PM70 °FSunny.10 mph14%30.24 "Hg10 mi
3:53 PM73 °FSunny.13 mph13%30.23 "Hg10 mi
2:53 PM73 °FSunny.10 mph13%30.23 "Hg10 mi
1:53 PM73 °FSunny.12 mph13%30.25 "Hg10 mi
12:53 PM72 °FSunny.12 mph13%30.26 "Hg10 mi
11:53 AM70 °FSunny.10 mph14%30.29 "Hg10 mi
10:53 AM69 °FSunny.12 mph15%30.32 "Hg10 mi
9:53 AM66 °FSunny.8 mph18%30.32 "Hg10 mi
8:53 AM59 °FSunny.7 mph27%30.32 "Hg10 mi
7:53 AM54 °FPassing clouds.6 mph30%30.32 "Hg10 mi
6:53 AM48 °FPassing clouds.5 mph39%30.31 "Hg10 mi
5:53 AM50 °FClear.7 mph33%30.29 "Hg10 mi
4:53 AM47 °FClear.6 mph39%30.28 "Hg10 mi
3:53 AM49 °FClear.7 mph38%30.27 "Hg10 mi
2:53 AM52 °FClear.6 mph30%30.27 "Hg10 mi
1:53 AM52 °FClear.6 mph31%30.27 "Hg10 mi
Weather by CustomWeather, © 2016

See weather overviewHow to use our weather pages